Location: Unspecified
(49.2170°N, 0.0000°E)
Time: 14:59:37
(UTC+00:00)

Tiros 1 despin weight - Pass Details

Date: 25 January 2021
Orbit: 593 x 642 km, 48.2° (Epoch: 07 March)

Event Time Altitude Azimuth Distance (km) Brightness Sun altitude
Rises 20:33:34 0° 276° (W) 2,843 ? -36.9°
Enters shadow 20:36:55 - 248° (WSW) 2,015 ? -37.4°
Reaches altitude 10° 20:37:35 10° 240° (WSW) 1,927 - -37.5°
Maximum altitude 20:38:46 11° 224° (SW) 1,860 - -37.7°
Drops below altitude 10° 20:39:57 10° 208° (SSW) 1,920 - -37.9°
Sets 20:43:56 0° 173° (S) 2,813 - -38.5°
